Regional Weather Roundup
Issued by NWS Cleveland, OH

Home | Current Version | Previous Version | Graphics & Text | Print | Product List | Glossary On
Versions: 1 2 3 4 5 6 7 8 9 10 11 12 13 14 15 16 17 18 19 20 21 22 23 24 25 26 27 28 29 30 31 32 33 34 35 36 37 38 39 40 41 42 43 44 45 46 47 48 49 50
000
ASUS41 KCLE 300310
RWRCLE
OHIO REGIONAL WEATHER ROUNDUP
NATIONAL WEATHER SERVICE CLEVELAND, OH
1100 PM EDT SAT APR 29 2017

NOTE: "FAIR" INDICATES FEW OR NO CLOUDS BELOW 12,000 FEET WITH NO
SIGNIFICANT WEATHER AND/OR OBSTRUCTIONS TO VISIBILITY.

OHZ001>008-015>018-024>027-034-035-043-044-300400-
   NORTHWEST OHIO

CITY           SKY/WX    TMP DP  RH WIND       PRES   REMARKS
DEFIANCE       CLOUDY    45  36  70 E8        30.11F
FINDLAY        CLOUDY    46  37  71 E20G28    30.09F
TOLEDO EXPRESS CLOUDY    46  36  68 E17       30.13F
TOLEDO EXEC    CLOUDY    47  38  71 NE16      30.15F
LIMA           CLOUDY    46  43  89 E21G28    30.06F
$$

OHZ009>014-019>023-028>033-038-089-300400-
   NORTHEAST OHIO

CITY           SKY/WX    TMP DP  RH WIND       PRES   REMARKS
CLE-HOPKINS    CLOUDY    49  39  68 NE13      30.19F
CLE-LAKEFRONT  CLOUDY    49  41  74 NE12      30.17F
CUY CO. ARPT   CLOUDY    48  43  81 E10       30.20S
LORAIN-ELYRIA  CLOUDY    46  39  76 NE10      30.17F
ASHTABULA      CLOUDY    49  44  83 CALM      30.21S
AKRON-CANTON   CLOUDY    50  46  86 NE10      30.14F
WOOSTER        CLOUDY    48  46  93 NE8       30.15F
MANSFIELD      CLOUDY    47  45  93 NE10      30.13S
YOUNGSTOWN     MOCLDY    50  47  89 N6        30.18R
$$

OHZ042-051>053-060>062-070>072-077>081-300400-
  SOUTHWEST OHIO

CITY           SKY/WX    TMP DP  RH WIND       PRES   REMARKS
CINC-COVINGTON CLOUDY    73  67  81 E12       29.96F
CINC-LUNKEN    MOCLDY    67  67 100 NE3       29.97S
HAMILTON       MOCLDY    72  66  81 E7        29.96F
DAYTON         CLOUDY    55  54  96 E13G22    30.01F FOG
WRIGHT-PAT AFB CLOUDY    57  57 100 NE12      30.02F FOG
DAYTON GENERAL PTCLDY    60  58  92 E13       29.98F
WILMINGTON     CLOUDY    61  61 100 E8        30.01S
$$

OHZ036-037-039>041-045>050-054>059-063>069-073>076-082>088-300400-
  CENTRAL AND SOUTHEAST OHIO

CITY           SKY/WX    TMP DP  RH WIND       PRES   REMARKS
COLUMBUS       CLOUDY    58  57  97 NE8       30.05S FOG
OSU AIRPORT    CLOUDY    55  54  96 NE13      30.06S FOG
BOLTON FIELD   CLOUDY    58  57  96 NE8       30.06S FOG
RICKENBACK AFB CLOUDY    59  59 100 NE9       30.05R
NEWARK         CLOUDY    57  55  93 NE10      30.07F
MARION         MOCLDY    49  46  90 E13       30.09F
LANCASTER      CLOUDY    62  59  90 NE8       30.06F FOG
ZANESVILLE     CLOUDY    61  58  90 NE8       30.08R
NEW PHILLY     NOT AVBL
$$




USA.gov is the U.S. government's official web portal to all federal, state and local government web resources and services.